Helicity
237 52 -2 17 32 30 39 31 30 21 36 56 62 60 85 92 81 57 121 170 94 62 146 92 61 40 28 5 16 -20 2 0 29 64 91 77 48 15 26 21 15 25 26 31 15 2 28 -18 -5 75 114 101 46 51
26 27 75 43 38 77 62 54 46 20 32 46 51 53 67 76 74 69 119 171 160 66 91 90 72 48 5 -17 2 -16 -16 -19 -1 41 29 15 11 -8 4 12 36 9 14 -20 22 16 3 -27 4 46 42 37 22 17
12 52 70 48 90 57 33 52 46 31 35 49 42 55 72 88 95 74 91 137 113 117 128 84 68 32 12 2 -9 23 -22 -20 -15 1 10 5 12 23 25 7 27 29 50 18 22 26 1 30 -7 3 20 27 34 15
50 21 26 44 55 38 49 59 65 40 34 57 52 63 77 88 95 73 106 138 101 105 81 87 82 59 17 18 28 19 21 23 20 -2 20 21 24 31 36 13 15 29 34 36 10 1 -8 -11 11 -3 11 23 8 6
28 29 47 66 69 58 56 35 52 42 36 43 58 73 86 80 75 55 71 147 89 40 59 62 76 64 23 36 44 39 37 24 24 35 22 23 16 46 24 16 29 9 8 19 15 16 1 6 18 14 1 1 -5 -1
35 33 48 64 65 54 35 33 30 39 47 68 75 86 93 90 61 68 95 103 130 84 95 78 60 45 26 32 38 35 37 39 37 34 30 9 10 43 52 36 12 10 7 7 1 33 30 10 18 19 12 10 22 19
49 73 70 96 73 40 30 23 29 56 60 65 67 69 85 72 62 56 48 81 114 75 88 95 79 41 11 35 31 37 41 54 62 77 69 32 25 32 37 50 25 24 4 11 12 9 -3 10 7 7 12 10 16 15
47 63 78 77 49 36 32 25 36 52 58 69 59 78 87 98 82 86 88 94 72 80 85 74 61 60 31 37 46 55 73 69 54 61 47 43 46 46 40 37 30 23 9 16 12 14 38 29 41 31 21 7 13 13
96 73 59 54 57 53 39 29 36 52 54 56 66 94 112 113 92 65 37 55 59 64 69 65 76 61 37 44 65 65 64 62 39 39 46 48 54 42 33 13 26 27 18 19 41 50 58 32 55 52 36 22 26 37
50 69 73 44 45 42 45 33 33 37 61 71 102 122 127 93 28 51 67 64 60 37 32 50 44 51 34 43 42 45 37 18 23 30 54 34 25 26 51 66 65 56 53 36 76 60 54 60 57 59 56 52 49 38
34 42 44 45 40 34 37 33 48 79 100 101 113 107 104 31 77 63 60 51 40 40 33 32 21 36 37 36 8 15 11 9 8 17 3 17 19 36 41 90 68 58 66 73 84 78 71 53 42 48 50 52 51 47
56 47 42 57 34 1 16 48 68 87 72 56 61 83 88 93 70 46 40 32 25 35 22 30 22 8 -2 18 12 5 6 4 17 7 17 35 45 40 67 53 50 39 38 50 44 58 65 60 47 55 56 56 49 53
64 50 46 49 34 19 29 47 54 36 45 98 119 112 75 54 44 44 39 38 34 12 18 13 -6 -6 33 16 10 0 13 49 54 17 24 25 12 36 57 51 35 25 22 30 47 62 72 73 67 62 72 60 59 55
38 42 46 53 56 42 49 46 34 65 90 119 122 94 69 52 32 30 31 23 15 35 12 12 0 34 30 7 6 21 38 27 33 34 32 16 17 35 30 15 12 20 29 38 46 53 62 74 79 67 51 30 48 51
38 33 41 59 52 54 63 70 69 81 105 141 112 108 62 35 33 22 11 15 20 15 11 34 42 21 18 4 11 22 22 30 14 14 12 10 11 18 15 28 26 36 40 51 60 64 50 42 37 34 21 38 63 64
41 76 113 46 57 81 90 101 108 90 109 114 95 76 57 45 47 19 7 9 22 11 47 45 33 23 17 14 18 37 26 16 35 60 22 24 14 14 17 32 32 42 50 50 40 24 14 28 35 38 41 49 59 71
48 185 71 52 78 113 134 104 112 111 103 109 78 61 55 46 31 6 15 6 42 41 45 48 40 37 24 27 39 11 17 22 12 11 8 -7 50 6 56 64 54 49 49 33 11 11 19 29 44 47 56 48 61 72
134 101 90 90 148 154 153 113 103 110 91 40 59 65 76 60 45 41 41 43 39 43 44 57 62 32 19 20 22 10 10 15 1 -19 -7 28 71 82 83 76 54 47 23 9 13 22 35 41 38 48 72 87 88 80
125 98 80 98 125 133 107 94 38 91 77 86 61 33 36 53 37 30 40 48 38 36 57 43 53 39 16 4 -9 -2 9 1 -9 14 30 51 77 83 72 63 38 19 15 20 25 26 31 39 59 69 82 113 119 119
86 109 113 108 99 131 102 68 84 58 56 58 59 42 8 7 25 20 31 47 46 42 54 30 12 29 4 0 2 4 36 65 109 103 73 37 56 77 58 37 14 14 25 30 37 51 58 53 59 85 115 136 144 125
130 103 123 86 64 79 97 83 82 73 35 26 23 23 14 5 14 14 31 28 39 42 36 28 11 -5 20 30 24 56 93 108 18 10 11 19 48 78 56 41 44 42 48 52 59 54 63 79 101 123 139 136 129 123
146 99 111 90 44 62 55 110 73 31 41 24 11 5 3 5 14 9 9 30 29 26 22 15 20 39 36 11 21 44 86 98 71 62 95 148 124 89 43 34 54 56 63 65 70 78 82 108 132 141 157 156 148 149
118 100 71 62 75 101 82 95 58 26 31 18 12 -1 3 9 8 8 29 26 36 49 55 49 45 68 51 72 93 94 86 85 75 72 90 110 117 90 65 53 55 62 60 52 69 103 131 144 150 166 167 172 177 187
108 45 -9 61 66 66 78 63 47 29 35 17 -4 3 11 10 12 18 42 46 61 60 68 64 99 129 120 111 90 60 72 96 99 100 99 122 117 91 63 55 47 39 62 91 113 142 145 154 164 177 176 184 195 203
18 40 77 67 36 48 38 33 38 39 25 39 27 14 12 14 3 25 49 54 54 47 55 77 94 105 115 104 86 101 100 109 99 89 82 125 158 155 129 115 104 96 103 156 148 149 147 161 177 194 192 199 200 204
72 68 57 50 43 45 42 31 18 20 43 35 7 19 20 10 24 44 42 26 24 11 11 26 64 103 97 100 99 92 79 109 140 150 112 100 129 166 151 140 127 102 85 98 137 140 149 168 199 208 212 194 194 194
38 47 35 33 36 41 42 45 34 38 36 26 21 31 32 17 33 24 17 16 20 11 3 52 88 92 102 119 137 154 165 161 154 152 159 172 178 154 135 124 96 74 94 109 117 134 161 179 196 203 210 193 185 172
23 23 47 53 63 82 52 43 27 27 30 30 47 34 5 5 15 -12 -21 -9 -6 5 40 67 55 73 100 118 144 195 220 223 240 233 248 261 203 160 146 145 153 155 138 128 130 148 164 172 177 187 194 196 175 158
-9 35 84 93 88 63 46 46 26 24 41 33 4 11 11 5 -3 -8 2 2 11 41 74 85 93 125 161 191 196 186 203 198 204 170 171 170 175 171 163 174 171 155 141 152 157 156 161 156 160 174 179 186 173 189
66 104 98 101 99 65 73 84 66 70 79 79 75 60 40 25 8 12 21 32 25 10 41 76 108 133 140 173 176 178 186 175 163 161 163 141 116 132 123 140 144 135 138 142 149 160 173 172 169 172 197 196 182 174
149 191 159 122 85 106 115 130 119 92 99 83 86 37 25 24 29 30 45 50 79 116 135 129 141 141 179 164 159 171 156 146 136 138 128 141 170 137 116 112 113 116 127 143 152 159 174 188 179 187 181 173 151 133
186 173 158 142 160 180 181 139 104 95 102 89 78 95 89 76 37 31 94 155 170 145 120 153 162 139 162 210 214 199 162 179 178 158 160 156 135 116 119 124 132 144 153 157 155 155 169 167 157 152 144 134 119 118
211 233 238 188 157 145 152 146 116 98 100 86 64 40 46 43 45 98 145 137 107 113 120 153 196 213 215 224 214 202 198 196 187 185 187 172 145 128 125 125 131 137 147 144 139 144 152 158 141 129 124 114 109 102
Wind_Speed
53 48 27 24 23 24 30 18 15 15 18 26 23 22 22 22 22 24 25 25 25 22 22 20 21 14 16 18 21 25 27 34 34 34 32 32 31 33 33 31 31 27 29 27 34 38 44 44 30 27 27 23 20 18
52 25 22 24 31 22 27 28 19 22 25 22 21 20 25 21 21 23 24 25 22 20 19 21 17 18 18 20 21 28 29 31 31 31 31 27 26 27 34 30 28 27 26 31 28 27 27 26 26 22 20 17 19 16
34 26 24 23 21 20 29 24 23 23 30 21 21 22 20 15 13 16 20 24 19 13 13 16 18 21 21 23 24 26 29 31 32 31 29 26 23 23 27 28 28 26 23 23 28 25 19 22 24 23 21 16 18 18
39 35 21 23 23 26 24 23 26 28 34 28 21 21 18 12 12 13 15 23 17 15 14 18 22 19 21 25 27 29 28 30 31 33 29 26 22 29 31 31 27 29 30 28 27 25 18 20 20 22 23 20 22 26
45 32 27 24 26 28 27 29 27 35 36 25 17 15 12 8 9 10 11 16 19 22 15 11 24 25 18 21 25 28 29 29 30 30 30 28 25 31 30 30 29 30 30 30 30 30 22 21 18 15 15 14 15 19
40 34 30 30 31 30 27 28 30 35 30 22 14 13 14 17 20 24 24 24 24 21 17 17 26 23 19 19 22 25 27 30 31 30 30 29 26 31 34 33 29 28 29 28 25 22 22 21 19 19 16 18 24 29
45 37 32 32 32 29 26 25 27 21 17 13 14 16 18 18 21 25 25 31 28 24 22 20 23 24 19 21 26 27 26 30 31 31 28 27 26 29 33 36 26 26 27 27 23 21 23 31 20 21 27 31 32 32
49 41 34 33 35 25 22 20 21 16 10 8 13 11 11 14 16 23 24 24 23 21 24 23 25 21 22 22 25 29 28 32 31 28 25 24 30 31 36 28 21 23 26 27 26 27 19 17 20 23 28 30 33 34
37 35 39 30 23 19 17 18 16 13 9 7 10 16 21 25 26 24 22 23 24 23 23 24 18 21 23 25 27 30 30 31 29 26 26 25 33 36 34 19 19 22 28 24 22 19 19 17 17 22 26 30 32 35
38 38 35 26 21 18 16 18 14 14 10 11 21 25 26 28 15 22 26 26 26 27 26 21 21 22 23 26 27 28 29 26 25 27 30 44 42 40 35 27 24 24 27 25 17 18 18 19 20 24 28 30 30 31
35 36 37 25 20 17 17 18 19 13 17 27 27 26 22 16 24 25 25 24 25 24 22 21 16 21 21 23 23 24 23 30 29 38 45 44 44 45 38 21 23 26 25 26 28 26 25 21 22 23 26 28 30 30
31 32 33 26 18 16 19 23 17 24 27 25 16 15 20 24 24 24 22 23 23 22 21 22 21 15 20 16 21 34 31 34 37 43 43 41 41 36 18 26 28 25 21 19 25 23 22 24 24 24 25 27 28 29
30 31 28 26 22 19 21 19 17 7 5 20 21 24 25 26 23 20 17 20 21 20 20 22 22 22 32 35 34 33 32 35 32 37 40 38 41 32 22 25 26 24 20 18 19 20 20 21 23 25 25 27 28 30
30 31 29 27 24 22 20 15 12 21 24 27 27 24 27 24 25 20 19 19 22 24 20 20 20 30 36 38 35 34 33 33 35 38 38 39 49 25 34 30 26 25 24 16 18 19 21 24 26 27 28 29 29 30
29 30 29 28 26 23 17 16 21 25 26 28 28 29 25 25 22 19 19 21 22 21 19 9 32 36 37 37 36 33 33 35 35 38 37 39 39 46 42 33 20 14 17 20 21 23 24 26 27 29 30 30 30 31
26 29 37 29 27 22 18 18 26 28 27 28 30 25 23 20 20 20 22 20 23 16 30 34 39 38 40 36 36 35 33 33 31 32 34 36 44 43 35 15 16 17 21 23 24 24 26 29 30 29 30 30 31 32
32 36 36 31 26 20 21 26 29 30 31 31 28 28 26 25 23 22 21 24 25 34 39 37 40 40 32 36 35 34 34 32 32 31 31 38 16 29 10 13 17 19 20 20 23 26 27 28 29 31 31 31 32 33
33 36 31 30 21 19 26 29 28 30 33 31 27 26 26 27 26 24 28 30 37 42 41 39 36 40 38 37 36 35 33 31 32 36 39 33 20 15 14 14 13 14 21 24 24 25 26 26 28 30 33 33 34 36
31 30 28 22 25 26 28 34 32 30 31 28 27 26 26 29 29 31 32 38 39 39 40 40 39 41 41 39 37 36 37 35 35 30 27 16 17 14 12 8 14 21 24 23 22 22 23 24 26 27 28 32 35 38
28 25 22 28 32 30 29 32 35 30 30 29 26 26 29 33 35 37 38 39 42 45 47 45 46 39 36 35 35 36 26 21 19 21 29 36 23 13 9 15 21 23 22 21 20 21 24 26 28 31 32 33 39 43
23 28 29 33 33 29 32 31 32 28 23 25 26 30 37 37 39 39 44 45 49 49 49 48 47 41 38 37 37 31 22 17 38 41 44 43 20 8 12 15 18 19 18 17 17 20 21 22 26 29 33 38 41 42
33 30 34 35 30 31 32 33 31 24 29 32 32 36 38 40 40 41 40 48 49 54 48 47 46 42 41 40 35 33 24 25 31 30 25 12 10 16 19 19 18 15 13 14 16 18 22 26 28 31 35 40 43 45
30 33 32 35 34 34 31 34 35 36 35 36 35 38 39 40 40 37 45 47 48 46 44 45 41 34 35 32 30 29 27 27 29 27 19 11 9 13 17 15 13 13 12 13 16 18 22 26 30 35 38 42 45 48
35 37 36 39 42 39 39 41 38 36 34 38 38 39 38 40 38 43 48 47 45 41 43 43 30 31 31 27 37 36 33 28 25 22 15 9 11 11 12 10 10 10 12 15 17 20 23 28 33 37 41 46 48 51
35 44 40 43 39 40 45 46 44 41 43 39 39 41 40 37 42 45 48 47 44 46 43 38 35 31 26 36 39 35 31 24 21 17 15 9 9 11 12 15 16 16 15 17 20 22 26 31 35 39 44 48 51 52
49 48 45 47 42 42 39 38 42 43 37 37 42 37 36 39 43 46 43 42 43 45 46 44 39 29 31 33 35 34 30 23 18 15 16 8 7 8 10 11 13 18 19 19 22 25 29 32 36 43 47 49 51 52
50 45 46 42 37 34 36 38 34 32 32 38 37 38 37 42 43 40 37 38 39 40 42 32 17 12 17 25 27 25 20 19 18 14 17 16 16 13 10 12 13 18 20 23 26 28 30 34 39 44 47 49 51 53
51 43 41 37 37 37 37 37 37 33 35 37 35 42 40 41 40 37 37 37 39 36 32 28 24 18 14 13 13 14 17 15 15 15 18 24 26 23 20 21 21 22 25 28 31 32 33 36 39 43 47 50 52 53
49 42 33 37 34 35 35 40 40 35 35 36 41 42 42 41 39 39 38 38 33 29 28 25 25 19 17 16 17 17 10 9 12 17 18 18 20 23 21 19 20 23 27 30 33 34 36 39 41 44 47 49 51 54
39 31 34 35 40 41 41 38 39 38 39 42 43 43 45 45 43 42 41 38 37 37 33 26 18 12 8 6 12 19 24 25 24 19 18 16 15 13 14 17 20 23 26 29 32 35 38 40 43 46 49 52 54 56
33 31 40 39 49 44 40 36 39 42 46 50 50 54 55 53 52 51 48 45 40 34 32 30 25 17 6 3 7 19 25 26 23 23 23 19 13 12 13 16 19 22 26 30 33 37 39 43 46 48 51 54 55 57
43 45 47 52 52 45 45 47 48 53 54 57 59 55 56 57 62 56 50 43 39 41 38 30 25 21 17 12 15 22 23 18 17 16 14 14 15 15 17 18 21 24 28 32 35 38 41 44 46 49 52 54 55 56
49 47 46 48 50 49 47 46 50 56 58 61 62 60 61 61 65 55 47 45 45 38 34 30 27 22 17 14 13 16 18 15 13 12 13 15 17 18 19 20 23 26 29 33 36 39 42 45 48 50 52 53 53 53
Wind_Direction
216 208 192 208 213 220 230 227 229 236 235 227 230 236 246 253 254 248 245 246 246 251 255 270 275 303 309 338 3 355 1 356 6 3 4 6 10 14 16 11 321 356 349 330 175 234 266 302 268 236 249 271 297 292
213 196 189 212 220 212 221 228 223 230 224 226 231 242 240 255 261 254 246 252 257 263 260 273 292 311 333 352 12 354 14 11 13 13 13 18 18 21 15 6 293 314 255 221 235 226 276 291 318 276 316 280 303 318
198 195 203 199 188 200 218 222 221 222 219 225 231 238 244 270 293 264 253 255 257 267 290 287 296 307 336 342 1 10 10 21 23 25 26 24 21 348 348 294 290 264 280 247 203 184 284 305 331 337 346 335 342 343
207 214 197 197 202 207 211 218 220 221 217 221 236 240 245 268 299 277 265 262 270 280 296 290 294 330 349 9 8 15 32 19 22 19 17 9 353 292 293 276 302 287 262 261 232 231 265 307 324 351 0 353 2 10
217 214 200 197 199 208 214 220 219 215 215 221 235 242 250 283 311 324 310 296 286 286 305 323 301 316 3 23 20 19 17 11 5 5 6 344 334 285 289 286 294 299 283 276 268 254 269 247 263 290 315 309 302 337
214 204 198 204 200 205 215 214 215 215 218 222 237 250 254 257 263 263 261 281 293 296 315 324 309 335 2 17 14 9 6 359 358 356 343 342 326 286 279 280 292 319 340 330 304 330 354 332 317 330 318 330 351 8
207 196 189 189 198 207 209 210 215 208 208 215 226 237 249 271 264 266 271 263 282 307 314 332 335 344 358 7 360 357 358 352 346 340 334 334 322 286 277 275 291 318 318 329 3 4 294 230 319 356 19 23 21 14
199 195 192 193 202 201 204 210 206 197 181 206 225 241 264 273 276 276 290 300 307 317 325 332 337 357 355 359 355 353 348 341 339 333 330 325 299 279 269 279 300 324 333 324 316 309 349 13 22 13 20 16 9 10
179 178 185 185 183 186 195 196 195 170 165 193 226 247 258 260 263 271 295 314 330 327 327 338 3 2 0 2 359 355 353 342 342 325 309 295 272 261 265 283 301 323 331 352 325 316 328 338 1 0 336 344 353 11
185 184 188 183 179 184 196 198 173 145 139 217 242 256 256 253 278 284 291 303 314 320 336 357 5 15 14 7 8 16 15 13 352 312 268 240 241 235 237 266 305 345 326 304 322 313 310 318 353 353 357 352 10 20
190 190 197 191 193 203 201 174 145 151 225 238 249 256 246 264 271 290 302 311 322 339 350 358 11 7 19 18 37 38 32 149 252 216 206 215 220 223 232 302 310 318 330 301 278 276 285 304 318 340 342 344 354 1
191 197 200 196 194 184 166 146 165 226 236 245 254 250 254 271 285 297 310 326 338 353 8 15 19 46 38 335 321 200 206 192 196 194 196 209 217 228 288 265 262 275 303 294 246 257 279 289 305 330 343 2 7 10
203 204 196 193 182 167 150 165 213 162 219 240 252 257 266 279 294 307 324 335 349 3 13 27 24 66 232 222 219 226 216 202 218 205 204 215 211 235 264 254 252 266 292 321 287 285 299 324 339 9 22 22 25 25
207 205 194 187 179 165 159 181 186 231 242 249 256 260 273 291 294 316 331 347 349 349 23 46 46 234 216 202 206 209 212 216 204 207 212 214 169 248 230 240 250 254 252 326 354 356 358 22 34 34 39 46 44 33
210 201 188 186 176 164 178 207 231 242 249 254 261 269 281 288 296 315 334 352 349 359 9 317 226 216 207 204 203 219 216 210 222 225 228 222 220 202 211 232 274 346 28 43 39 43 48 53 51 51 49 44 36 28
196 184 204 180 167 178 198 226 238 246 257 263 267 276 284 294 302 315 329 345 327 347 233 221 210 211 208 213 210 209 220 215 220 226 225 221 206 211 231 297 314 26 55 64 64 60 60 64 62 53 42 34 27 22
193 212 180 171 165 192 217 238 241 247 256 263 273 272 277 287 303 315 331 306 276 231 220 219 215 215 234 221 222 223 221 231 230 238 235 220 70 248 355 11 45 59 62 62 65 65 61 55 47 37 35 28 23 20
205 158 156 147 176 212 236 244 246 252 257 262 272 275 281 295 304 312 292 266 234 224 224 226 236 227 226 227 226 230 233 248 240 222 214 227 71 44 29 49 51 56 76 80 71 64 57 49 40 39 29 26 19 12
164 162 152 174 214 231 243 238 244 258 259 264 273 281 293 296 294 277 267 242 235 234 235 234 239 234 236 243 243 248 247 250 252 264 275 340 56 40 344 10 69 86 90 83 72 62 53 44 33 28 23 16 11 6
144 149 173 210 223 235 242 241 240 259 260 263 280 290 294 282 268 262 252 242 238 235 231 236 226 237 255 271 282 282 310 334 338 314 273 244 282 322 50 83 94 98 90 77 56 43 32 28 23 19 19 16 8 4
174 200 211 220 231 243 245 241 241 262 277 278 280 274 265 264 261 254 241 235 229 232 238 246 247 263 279 292 295 306 333 358 255 243 232 237 290 16 83 90 93 92 85 68 50 31 29 26 21 18 13 7 5 2
206 209 215 224 240 248 254 245 248 265 263 259 257 260 259 258 254 244 240 229 236 238 247 250 254 264 264 269 285 299 322 308 284 283 295 339 73 104 114 113 105 94 74 57 41 32 23 18 17 13 8 4 2 0
204 214 224 226 235 243 246 232 236 237 245 245 258 258 264 258 250 250 238 240 247 254 257 259 267 284 283 298 309 311 300 289 284 296 317 343 41 84 106 103 95 94 72 43 32 24 17 15 12 8 5 2 1 359
210 213 221 225 228 233 227 224 230 239 251 252 259 267 263 251 252 245 241 244 253 259 254 256 281 283 292 306 286 277 279 286 296 311 331 24 74 79 92 75 77 77 40 29 26 20 15 8 6 4 2 359 359 357
219 216 224 221 224 223 222 226 235 246 249 262 268 260 252 255 246 244 242 244 249 246 252 264 274 289 307 290 277 279 281 292 303 322 326 354 21 16 14 13 14 17 28 25 14 10 5 3 2 1 360 358 356 356
208 215 217 212 218 221 230 236 239 249 271 272 256 259 258 252 244 239 245 251 249 248 248 258 271 300 303 292 276 275 282 295 311 322 321 360 32 55 50 36 21 8 9 10 8 3 1 1 360 358 357 358 358 358
213 219 224 231 240 247 250 254 265 279 279 258 257 254 253 245 243 251 260 259 257 264 263 290 336 1 334 309 291 290 301 310 314 326 332 337 340 351 17 14 8 8 14 13 8 4 2 0 359 359 359 0 360 360
227 236 240 247 255 263 266 267 272 282 272 266 264 251 251 248 253 265 268 275 274 282 296 309 326 1 24 353 316 308 310 324 339 345 347 340 338 343 352 2 15 18 12 10 9 10 10 7 5 3 2 1 2 3
247 257 268 268 276 279 283 273 276 283 280 267 259 260 261 265 271 275 284 284 290 298 310 320 323 347 4 348 318 308 325 334 327 321 325 331 339 345 1 14 17 15 14 13 14 15 14 13 12 10 8 7 7 7
266 270 277 278 275 277 282 285 285 283 279 272 272 274 272 271 276 282 286 289 288 288 301 315 330 353 24 16 317 305 306 311 315 326 329 331 341 11 22 22 20 20 20 20 19 17 14 13 11 10 8 7 5 5
278 275 278 282 274 281 285 288 285 281 277 273 274 270 270 274 276 278 283 286 290 297 300 304 311 321 10 44 315 301 301 308 321 331 340 356 22 35 36 32 29 27 22 19 15 13 13 10 8 8 7 6 6 6
275 274 274 273 276 283 283 281 279 275 275 272 270 274 275 276 273 279 287 288 289 286 290 297 299 304 314 335 330 316 319 322 328 342 6 25 38 40 39 37 32 28 22 18 17 16 13 11 10 9 8 8 8 9
274 277 279 278 277 277 279 280 278 275 273 271 271 274 273 274 274 282 295 293 286 286 289 293 298 304 312 324 335 330 330 337 354 15 38 46 48 48 44 40 34 28 23 20 18 17 13 12 10 10 10 11 12 13